EN

Hourly Weather Ladygino

Today, 24 July, Saturday

Time Temperature Precipitation Wind Pressure Humidity
00:00 +13°C° 0 mm 2 mps 740 mmHg 83%
01:00 +13°C° 0 mm 2 mps 741 mmHg 84%
02:00 +12°C° 0 mm 2 mps 741 mmHg 84%
03:00 +13°C° 0 mm 2 mps 741 mmHg 81%
04:00 +13°C° 0 mm 2 mps 741 mmHg 78%
05:00 +14°C° 0 mm 2 mps 742 mmHg 75%
06:00 +15°C° 0 mm 2 mps 742 mmHg 71%
07:00 +15°C° 0 mm 2 mps 742 mmHg 68%
08:00 +16°C° 0 mm 2 mps 743 mmHg 64%
09:00 +17°C° 0 mm 2 mps 743 mmHg 57%
10:00 +19°C° 0 mm 2 mps 743 mmHg 51%
11:00 +21°C° 0 mm 1 mps 743 mmHg 44%
12:00 +20°C° 0 mm 2 mps 743 mmHg 43%
13:00 +21°C° 0 mm 2 mps 744 mmHg 42%
14:00 +21°C° 0 mm 2 mps 744 mmHg 41%
15:00 +20°C° 0 mm 2 mps 744 mmHg 46%
16:00 +20°C° 0 mm 2 mps 744 mmHg 51%
17:00 +19°C° 0 mm 2 mps 744 mmHg 56%
18:00 +19°C° 0 mm 1 mps 745 mmHg 59%
19:00 +18°C° 0 mm 1 mps 745 mmHg 62%
20:00 +16°C° 0 mm 1 mps 745 mmHg 65%
21:00 +15°C° 0 mm 1 mps 745 mmHg 67%
22:00 +14°C° 0 mm 1 mps 745 mmHg 69%
23:00 +13°C° 0 mm 1 mps 746 mmHg 70%

Tomorrow, 25 July, Sunday

Time Temperature Precipitation Wind Pressure Humidity
00:00 +14°C° 0 mm 1 mps 746 mmHg 68%
01:00 +14°C° 0 mm 1 mps 746 mmHg 66%
02:00 +14°C° 0 mm 1 mps 746 mmHg 64%
03:00 +14°C° 0 mm 1 mps 746 mmHg 64%
04:00 +15°C° 0 mm 1 mps 747 mmHg 63%
05:00 +15°C° 0 mm 1 mps 747 mmHg 63%
06:00 +16°C° 0 mm 1 mps 747 mmHg 61%
07:00 +18°C° 0 mm 1 mps 747 mmHg 59%
08:00 +17°C° 0 mm 0 mps 747 mmHg 57%
09:00 +21°C° 0 mm 1 mps 748 mmHg 53%
10:00 +22°C° 0 mm 1 mps 748 mmHg 49%
11:00 +23°C° 0 mm 1 mps 748 mmHg 45%
12:00 +24°C° 0 mm 1 mps 748 mmHg 43%
13:00 +24°C° 0 mm 1 mps 748 mmHg 42%
14:00 +25°C° 0 mm 1 mps 748 mmHg 40%
15:00 +24°C° 0 mm 1 mps 748 mmHg 45%
16:00 +24°C° 0 mm 1 mps 748 mmHg 50%
17:00 +23°C° 0 mm 2 mps 748 mmHg 55%
18:00 +22°C° 0 mm 1 mps 748 mmHg 56%
19:00 +21°C° 0 mm 1 mps 748 mmHg 57%
20:00 +20°C° 0 mm 1 mps 748 mmHg 57%
21:00 +19°C° 0 mm 1 mps 749 mmHg 58%
22:00 +19°C° 0 mm 1 mps 749 mmHg 59%
23:00 +17°C° 0 mm 2 mps 749 mmHg 60%

Day after tomorrow, 26 July, Monday

Time Temperature Precipitation Wind Pressure Humidity
00:00 +17°C° 0 mm 2 mps 749 mmHg 61%
01:00 +16°C° 0 mm 2 mps 749 mmHg 63%
02:00 +16°C° 0 mm 2 mps 749 mmHg 64%
03:00 +16°C° 0 mm 2 mps 749 mmHg 66%
04:00 +16°C° 0 mm 2 mps 749 mmHg 67%
05:00 +17°C° 0 mm 2 mps 749 mmHg 69%
06:00 +18°C° 0 mm 2 mps 750 mmHg 67%
07:00 +19°C° 0 mm 2 mps 750 mmHg 64%
08:00 +21°C° 0 mm 2 mps 750 mmHg 62%
09:00 +21°C° 0 mm 2 mps 750 mmHg 61%
10:00 +23°C° 0 mm 2 mps 750 mmHg 59%
11:00 +24°C° 0 mm 2 mps 750 mmHg 58%
12:00 +24°C° 0 mm 2 mps 750 mmHg 54%
13:00 +25°C° 0 mm 2 mps 750 mmHg 50%
14:00 +26°C° 0 mm 1 mps 750 mmHg 47%
15:00 +26°C° 0 mm 2 mps 750 mmHg 47%
16:00 +26°C° 0 mm 2 mps 749 mmHg 47%
17:00 +27°C° 0 mm 2 mps 749 mmHg 47%
18:00 +25°C° 0 mm 2 mps 749 mmHg 52%
19:00 +23°C° 0 mm 2 mps 749 mmHg 57%
20:00 +20°C° 0 mm 2 mps 749 mmHg 63%
21:00 +20°C° 0 mm 2 mps 749 mmHg 64%
22:00 +19°C° 0 mm 2 mps 749 mmHg 65%
23:00 +19°C° 0 mm 2 mps 749 mmHg 66%

27 July, Tuesday

Time Temperature Precipitation Wind Pressure Humidity
00:00 +18°C° 0 mm 2 mps 749 mmHg 69%
01:00 +18°C° 0 mm 2 mps 749 mmHg 71%
02:00 +18°C° 0 mm 2 mps 749 mmHg 73%
03:00 +18°C° 0 mm 2 mps 749 mmHg 75%
04:00 +17°C° 0 mm 2 mps 749 mmHg 76%
05:00 +17°C° 0 mm 2 mps 750 mmHg 78%
06:00 +19°C° 0 mm 2 mps 750 mmHg 72%
07:00 +21°C° 0 mm 2 mps 750 mmHg 66%
08:00 +24°C° 0 mm 2 mps 750 mmHg 60%
09:00 +26°C° 0 mm 2 mps 749 mmHg 55%
10:00 +27°C° 0 mm 2 mps 749 mmHg 50%
11:00 +28°C° 0 mm 3 mps 749 mmHg 46%
12:00 +28°C° 0 mm 2 mps 749 mmHg 48%
13:00 +27°C° 0 mm 2 mps 748 mmHg 51%
14:00 +26°C° 0 mm 2 mps 748 mmHg 54%
15:00 +26°C° 0 mm 2 mps 748 mmHg 56%
16:00 +25°C° 0 mm 2 mps 748 mmHg 58%
17:00 +25°C° 0 mm 2 mps 748 mmHg 60%
18:00 +24°C° 0 mm 2 mps 747 mmHg 65%
19:00 +21°C° 0 mm 2 mps 747 mmHg 70%
20:00 +20°C° 0 mm 2 mps 747 mmHg 75%
21:00 +20°C° 0 mm 2 mps 747 mmHg 74%
22:00 +20°C° 0 mm 2 mps 747 mmHg 73%
23:00 +20°C° 0 mm 2 mps 747 mmHg 72%

28 July, Wednesday

Time Temperature Precipitation Wind Pressure Humidity
00:00 +19°C° 0 mm 2 mps 747 mmHg 73%
01:00 +19°C° 0 mm 2 mps 746 mmHg 75%
02:00 +18°C° 0 mm 2 mps 746 mmHg 77%
03:00 +18°C° 0 mm 2 mps 746 mmHg 77%
04:00 +18°C° 0 mm 2 mps 746 mmHg 78%
05:00 +18°C° 0 mm 2 mps 745 mmHg 78%
06:00 +20°C° 0 mm 3 mps 745 mmHg 70%
07:00 +22°C° 0 mm 4 mps 745 mmHg 62%
08:00 +25°C° 0 mm 4 mps 745 mmHg 53%
09:00 +26°C° 0 mm 4 mps 744 mmHg 50%
10:00 +27°C° 0 mm 5 mps 744 mmHg 46%
11:00 +28°C° 0 mm 5 mps 744 mmHg 43%
12:00 +26°C° 0.2 mm 4 mps 743 mmHg 55%
13:00 +24°C° 0.2 mm 3 mps 743 mmHg 66%
14:00 +21°C° 0.2 mm 2 mps 743 mmHg 78%
15:00 +20°C° 0.5 mm 3 mps 742 mmHg 83%
16:00 +19°C° 0.5 mm 3 mps 741 mmHg 88%
17:00 +18°C° 0.5 mm 4 mps 741 mmHg 93%
18:00 +19°C° 0.4 mm 4 mps 740 mmHg 93%
19:00 +19°C° 0.4 mm 4 mps 740 mmHg 93%
20:00 +19°C° 0.4 mm 4 mps 739 mmHg 93%
21:00 +19°C° 0.9 mm 4 mps 738 mmHg 94%
22:00 +19°C° 0.9 mm 4 mps 738 mmHg 95%
23:00 +19°C° 0.9 mm 4 mps 737 mmHg 96%

29 July, Thursday

Time Temperature Precipitation Wind Pressure Humidity
00:00 +19°C° 0.4 mm 4 mps 737 mmHg 97%
01:00 +19°C° 0.4 mm 4 mps 737 mmHg 97%
02:00 +18°C° 0.4 mm 4 mps 736 mmHg 97%
03:00 +19°C° 0 mm 4 mps 736 mmHg 97%
04:00 +19°C° 0 mm 3 mps 736 mmHg 97%
05:00 +19°C° 0 mm 3 mps 736 mmHg 97%
06:00 +20°C° 0 mm 3 mps 736 mmHg 94%
07:00 +20°C° 0 mm 4 mps 737 mmHg 90%
08:00 +21°C° 0 mm 4 mps 737 mmHg 87%
09:00 +23°C° 0 mm 4 mps 737 mmHg 76%
10:00 +25°C° 0 mm 5 mps 737 mmHg 65%
11:00 +27°C° 0 mm 5 mps 737 mmHg 54%
12:00 +28°C° 0 mm 5 mps 737 mmHg 50%
13:00 +29°C° 0 mm 5 mps 737 mmHg 45%
14:00 +29°C° 0 mm 6 mps 737 mmHg 41%
15:00 +28°C° 0 mm 5 mps 737 mmHg 45%
16:00 +27°C° 0 mm 4 mps 737 mmHg 49%
17:00 +26°C° 0 mm 3 mps 737 mmHg 53%
18:00 +25°C° 0 mm 3 mps 738 mmHg 55%
19:00 +24°C° 0 mm 3 mps 738 mmHg 57%
20:00 +24°C° 0 mm 3 mps 738 mmHg 59%
21:00 +22°C° 0 mm 3 mps 739 mmHg 62%
22:00 +21°C° 0 mm 2 mps 739 mmHg 66%
23:00 +20°C° 0 mm 2 mps 739 mmHg 69%
Show more